Location: Unspecified
(0.0000°N, 0.0000°E)
Time: 05:53:43
(UTC+00:00)

ISS - Visible Passes

Search period start: 09 June 2026 00:00
Search period end: 19 June 2026 00:00
Orbit: 413 x 422 km, 51.6° (Epoch: 8 June)

Date Brightness Start Highest point End Pass type
(mag) Time Alt. Az. Time Alt. Az. Time Alt. Az.
9 Jun -1.0 04:31:15 10° SSE 04:32:58 13° SE 04:34:41 10° E visible
10 Jun -3.3 05:18:37 12° SW 05:21:30 45° NW 05:24:44 10° NNE visible
11 Jun -3.6 04:33:05 60° S 04:33:27 68° SE 04:36:48 10° NE visible
12 Jun -0.6 03:47:29 15° ENE 03:47:29 15° ENE 03:48:18 10° ENE visible
13 Jun -1.8 04:34:46 19° NNW 04:34:46 19° NNW 04:36:28 10° N visible
14 Jun -0.4 03:49:01 10° NNE 03:49:01 10° NNE 03:49:02 10° NNE visible
